Hourly Data Report for December 12, 2017

All times are specified in Local Standard Time (LST). Add 1 hour to adjust for Daylight Saving Time where and when it is observed.

CHATHAM KENT
ONTARIO

42°18'21.000" N
82°04'57.000" W
196.60 m
6131414
YCK

Related Data

No related data is available for this station

Download Data

Hourly Data (December 2017)
Hourly Data Report for December 12, 2017
Temp Definition
°C
Dew Point Temp Definition
°C
Rel Hum Definition
%
Wind Dir Definition
10's deg

Wind Spd Definition
km/h
Visibility Definition
km
Stn Press Definition
kPa
Hmdx Definition


Wind Chill Definition


Weather Definition


TIME
00:00 Legend Double Dagger -0.6 -1.0 97 26 8 1.6 98.05   -3 Snow
01:00 Legend Double Dagger -0.7 -1.1 97 27 8 1.6 97.96   -4 Snow
02:00 Legend Double Dagger -0.9 -1.3 97 29 11 2.4 97.93   -5 Snow
03:00 Legend Double Dagger -0.8 -1.7 94 32 18 3.2 97.98   -6 Snow
04:00 Legend Double Dagger -1.6 -2.6 93 32 22 2.4 97.99   -8 Snow
05:00 Legend Double Dagger -2.5 -3.8 91 33 28 4.8 98.03   -10 Snow
06:00 Legend Double Dagger -3.7 -6.7 80 34 45 3.2 98.12   -13 Snow
07:00 Legend Double Dagger -5.9 -10.0 73 34 43 6.4 98.29   -16 Snow
08:00 Legend Double Dagger -7.6 -13.1 65 33 35 6.4 98.43   -17 Snow
09:00 Legend Double Dagger -7.9 -13.8 63 33 32 14.5 98.49   -17 LegendNANA
10:00 Legend Double Dagger -8.0 -13.7 64 32 34 16.1 98.54   -17 LegendNANA
11:00 Legend Double Dagger -8.0 -14.5 60 32 32 16.1 98.58   -17 LegendNANA
12:00 Legend Double Dagger -8.3 -13.5 66 33 32 14.5 98.56   -18 LegendNANA
13:00 Legend Double Dagger -8.9 -15.3 60 32 34 16.1 98.56   -19 LegendNANA
14:00 Legend Double Dagger -8.8 -15.2 60 33 21 16.1 98.58   -17 LegendNANA
15:00 Legend Double Dagger -8.8 -17.0 52 32 30 16.1 98.60   -18 LegendNANA
16:00 Legend Double Dagger -10.0 -17.5 55 33 30 16.1 98.65   -20 LegendNANA
17:00 Legend Double Dagger -10.0 -17.2 56 34 21 16.1 98.69   -18 LegendNANA
18:00 Legend Double Dagger -10.0 -17.4 55 33 28 16.1 98.73   -19 LegendNANA
19:00 Legend Double Dagger -11.5 -18.2 58 32 15 16.1 98.77   -19 LegendNANA
20:00 Legend Double Dagger -11.4 -18.1 58 32 21 16.1 98.77   -20 LegendNANA
21:00 Legend Double Dagger -10.9 -17.4 59 32 24 16.1 98.75   -20 LegendNANA
22:00 Legend Double Dagger -11.5 -17.6 61 31 21 16.1 98.74   -20 LegendNANA
23:00 Legend Double Dagger -11.5 -16.8 65 31 22 16.1 98.72   -20 LegendNANA

Notes on Data Quality.

Legend

  • E = Estimated
  • M = Missing
  • NA = Not Available
  • ‡ = Partner data that is not subject to review by the National Climate Archives
Date modified: